Year,Month,Day,Hour,Minute,Value (Times are PST for temperature in C)
2007,06,14,00,00,9.30
2007,06,14,00,01,9.30
2007,06,14,00,02,9.30
2007,06,14,00,03,9.30
2007,06,14,00,04,9.30
2007,06,14,00,05,9.30
2007,06,14,00,06,9.20
2007,06,14,00,07,9.20
2007,06,14,00,08,9.20
2007,06,14,00,09,9.20
2007,06,14,00,10,9.20
2007,06,14,00,11,9.20
2007,06,14,00,12,9.20
2007,06,14,00,13,9.30
2007,06,14,00,14,9.30
2007,06,14,00,15,9.30
2007,06,14,00,16,9.30
2007,06,14,00,17,9.30
2007,06,14,00,18,9.30
2007,06,14,00,19,9.30
2007,06,14,00,20,9.30
2007,06,14,00,21,9.30
2007,06,14,00,22,9.40
2007,06,14,00,23,9.40
2007,06,14,00,24,9.40
2007,06,14,00,25,9.40
2007,06,14,00,26,9.40
2007,06,14,00,27,9.40
2007,06,14,00,28,9.40
2007,06,14,00,29,9.40
2007,06,14,00,30,9.40
2007,06,14,00,31,9.40
2007,06,14,00,32,9.40
2007,06,14,00,33,9.40
2007,06,14,00,34,9.40
2007,06,14,00,35,9.30
2007,06,14,00,36,9.20
2007,06,14,00,37,9.20
2007,06,14,00,38,9.20
2007,06,14,00,39,9.10
2007,06,14,00,40,9.10
2007,06,14,00,41,9.00
2007,06,14,00,42,9.00
2007,06,14,00,43,8.90
2007,06,14,00,44,8.90
2007,06,14,00,45,8.80
2007,06,14,00,46,8.80
2007,06,14,00,47,8.80
2007,06,14,00,48,8.70
2007,06,14,00,49,8.70
2007,06,14,00,50,8.70
2007,06,14,00,51,8.70
2007,06,14,00,52,8.70
2007,06,14,00,53,8.70
2007,06,14,00,54,8.70
2007,06,14,00,55,8.60
2007,06,14,00,56,8.60
2007,06,14,00,57,8.60
2007,06,14,00,58,8.60
2007,06,14,00,59,8.60
2007,06,14,01,00,8.50
2007,06,14,01,01,8.50
2007,06,14,01,02,8.40
2007,06,14,01,03,8.40
2007,06,14,01,04,8.40
2007,06,14,01,05,8.30
2007,06,14,01,06,8.30
2007,06,14,01,07,8.30
2007,06,14,01,08,8.30
2007,06,14,01,09,8.30
2007,06,14,01,10,8.30
2007,06,14,01,11,8.30
2007,06,14,01,12,8.30
2007,06,14,01,13,8.30
2007,06,14,01,14,8.30
2007,06,14,01,15,8.30
2007,06,14,01,16,8.30
2007,06,14,01,17,8.20
2007,06,14,01,18,8.20
2007,06,14,01,19,8.20
2007,06,14,01,20,8.20
2007,06,14,01,21,8.10
2007,06,14,01,22,8.10
2007,06,14,01,23,8.10
2007,06,14,01,24,8.10
2007,06,14,01,25,8.10
2007,06,14,01,26,8.20
2007,06,14,01,27,8.20
2007,06,14,01,28,8.20
2007,06,14,01,29,8.20
2007,06,14,01,30,8.20
2007,06,14,01,31,8.30
2007,06,14,01,32,8.20
2007,06,14,01,33,8.30
2007,06,14,01,34,8.30
2007,06,14,01,35,8.30
2007,06,14,01,36,8.30
2007,06,14,01,37,8.40
2007,06,14,01,38,8.40
2007,06,14,01,39,8.40
2007,06,14,01,40,8.50
2007,06,14,01,41,8.50
2007,06,14,01,42,8.50
2007,06,14,01,43,8.50
2007,06,14,01,44,8.50
2007,06,14,01,45,8.40
2007,06,14,01,46,8.30
2007,06,14,01,47,8.30
2007,06,14,01,48,8.20
2007,06,14,01,49,8.20
2007,06,14,01,50,8.20
2007,06,14,01,51,8.10
2007,06,14,01,52,8.10
2007,06,14,01,53,8.10
2007,06,14,01,54,8.00
2007,06,14,01,55,8.00
2007,06,14,01,56,8.00
2007,06,14,01,57,8.00
2007,06,14,01,58,8.00
2007,06,14,01,59,7.90
2007,06,14,02,00,7.90
2007,06,14,02,01,7.90
2007,06,14,02,02,7.90
2007,06,14,02,03,7.90
2007,06,14,02,04,7.90
2007,06,14,02,05,8.00
2007,06,14,02,06,8.00
2007,06,14,02,07,8.10
2007,06,14,02,08,8.30
2007,06,14,02,09,8.50
2007,06,14,02,10,8.60
2007,06,14,02,11,8.70
2007,06,14,02,12,8.80
2007,06,14,02,13,8.90
2007,06,14,02,14,9.00
2007,06,14,02,15,9.00
2007,06,14,02,16,9.10
2007,06,14,02,17,9.10
2007,06,14,02,18,9.20
2007,06,14,02,19,9.20
2007,06,14,02,20,9.20
2007,06,14,02,21,9.20
2007,06,14,02,22,9.20
2007,06,14,02,23,9.20
2007,06,14,02,24,9.20
2007,06,14,02,25,9.30
2007,06,14,02,26,9.30
2007,06,14,02,27,9.30
2007,06,14,02,28,9.30
2007,06,14,02,29,9.30
2007,06,14,02,30,9.30
2007,06,14,02,31,9.30
2007,06,14,02,32,9.40
2007,06,14,02,33,9.40
2007,06,14,02,34,9.40
2007,06,14,02,35,9.40
2007,06,14,02,36,9.40
2007,06,14,02,37,9.40
2007,06,14,02,38,9.40
2007,06,14,02,39,9.40
2007,06,14,02,40,9.40
2007,06,14,02,41,9.40
2007,06,14,02,42,9.40
2007,06,14,02,43,9.40
2007,06,14,02,44,9.40
2007,06,14,02,45,9.40
2007,06,14,02,46,9.40
2007,06,14,02,47,9.40
2007,06,14,02,48,9.40
2007,06,14,02,49,9.40
2007,06,14,02,50,9.40
2007,06,14,02,51,9.50
2007,06,14,02,52,9.50
2007,06,14,02,53,9.60
2007,06,14,02,54,9.60
2007,06,14,02,55,9.60
2007,06,14,02,56,9.60
2007,06,14,02,57,9.60
2007,06,14,02,58,9.60
2007,06,14,02,59,9.60
2007,06,14,03,00,9.70
2007,06,14,03,01,9.70
2007,06,14,03,02,9.70
2007,06,14,03,03,9.70
2007,06,14,03,04,9.70
2007,06,14,03,05,9.70
2007,06,14,03,06,9.70
2007,06,14,03,07,9.70
2007,06,14,03,08,9.70
2007,06,14,03,09,9.60
2007,06,14,03,10,9.60
2007,06,14,03,11,9.60
2007,06,14,03,12,9.60
2007,06,14,03,13,9.60
2007,06,14,03,14,9.60
2007,06,14,03,15,9.50
2007,06,14,03,16,9.50
2007,06,14,03,17,9.50
2007,06,14,03,18,9.40
2007,06,14,03,19,9.40
2007,06,14,03,20,9.40
2007,06,14,03,21,9.40
2007,06,14,03,22,9.40
2007,06,14,03,23,9.40
2007,06,14,03,24,9.40
2007,06,14,03,25,9.40
2007,06,14,03,26,9.40
2007,06,14,03,27,9.40
2007,06,14,03,28,9.50
2007,06,14,03,29,9.50
2007,06,14,03,30,9.50
2007,06,14,03,31,9.50
2007,06,14,03,32,9.50
2007,06,14,03,33,9.50
2007,06,14,03,34,9.50
2007,06,14,03,35,9.50
2007,06,14,03,36,9.50
2007,06,14,03,37,9.50
2007,06,14,03,38,9.50
2007,06,14,03,39,9.50
2007,06,14,03,40,9.50
2007,06,14,03,41,9.50
2007,06,14,03,42,9.60
2007,06,14,03,43,9.60
2007,06,14,03,44,9.60
2007,06,14,03,45,9.60
2007,06,14,03,46,9.50
2007,06,14,03,47,9.50
2007,06,14,03,48,9.50
2007,06,14,03,49,9.50
2007,06,14,03,50,9.50
2007,06,14,03,51,9.50
2007,06,14,03,52,9.60
2007,06,14,03,53,9.60
2007,06,14,03,54,9.60
2007,06,14,03,55,9.60
2007,06,14,03,56,9.60
2007,06,14,03,57,9.60
2007,06,14,03,58,9.60
2007,06,14,03,59,9.60
2007,06,14,04,00,9.60
2007,06,14,04,01,9.60
2007,06,14,04,02,9.60
2007,06,14,04,03,9.60
2007,06,14,04,04,9.60
2007,06,14,04,05,9.60
2007,06,14,04,06,9.60
2007,06,14,04,07,9.50
2007,06,14,04,08,9.50
2007,06,14,04,09,9.50
2007,06,14,04,10,9.50
2007,06,14,04,11,9.50
2007,06,14,04,12,9.50
2007,06,14,04,13,9.50
2007,06,14,04,14,9.50
2007,06,14,04,15,9.50
2007,06,14,04,16,9.50
2007,06,14,04,17,9.40
2007,06,14,04,18,9.40
2007,06,14,04,19,9.50
2007,06,14,04,20,9.50
2007,06,14,04,21,9.50
2007,06,14,04,22,9.40
2007,06,14,04,23,9.50
2007,06,14,04,24,9.50
2007,06,14,04,25,9.50
2007,06,14,04,26,9.50
2007,06,14,04,27,9.50
2007,06,14,04,28,9.40
2007,06,14,04,29,9.40
2007,06,14,04,30,9.50
2007,06,14,04,31,9.50
2007,06,14,04,32,9.50
2007,06,14,04,33,9.40
2007,06,14,04,34,9.40
2007,06,14,04,35,9.40
2007,06,14,04,36,9.40
2007,06,14,04,37,9.40
2007,06,14,04,38,9.40
2007,06,14,04,39,9.40
2007,06,14,04,40,9.40
2007,06,14,04,41,9.40
2007,06,14,04,42,9.40
2007,06,14,04,43,9.40
2007,06,14,04,44,9.40
2007,06,14,04,45,9.40
2007,06,14,04,46,9.50
2007,06,14,04,47,9.50
2007,06,14,04,48,9.50
2007,06,14,04,49,9.50
2007,06,14,04,50,9.50
2007,06,14,04,51,9.60
2007,06,14,04,52,9.50
2007,06,14,04,53,9.50
2007,06,14,04,54,9.50
2007,06,14,04,55,9.50
2007,06,14,04,56,9.50
2007,06,14,04,57,9.50
2007,06,14,04,58,9.50
2007,06,14,04,59,9.50
2007,06,14,05,00,9.40
2007,06,14,05,01,9.40
2007,06,14,05,02,9.40
2007,06,14,05,03,9.40
2007,06,14,05,04,9.40
2007,06,14,05,05,9.40
2007,06,14,05,06,9.40
2007,06,14,05,07,9.40
2007,06,14,05,08,9.30
2007,06,14,05,09,9.30
2007,06,14,05,10,9.30
2007,06,14,05,11,9.30
2007,06,14,05,12,9.30
2007,06,14,05,13,9.30
2007,06,14,05,14,9.30
2007,06,14,05,15,9.30
2007,06,14,05,16,9.30
2007,06,14,05,17,9.30
2007,06,14,05,18,9.30
2007,06,14,05,19,9.30
2007,06,14,05,20,9.30
2007,06,14,05,21,9.30
2007,06,14,05,22,9.30
2007,06,14,05,23,9.30
2007,06,14,05,24,9.40
2007,06,14,05,25,9.40
2007,06,14,05,26,9.40
2007,06,14,05,27,9.40
2007,06,14,05,28,9.40
2007,06,14,05,29,9.40
2007,06,14,05,30,9.40
2007,06,14,05,31,9.40
2007,06,14,05,32,9.40
2007,06,14,05,33,9.40
2007,06,14,05,34,9.40
2007,06,14,05,35,9.40
2007,06,14,05,36,9.40
2007,06,14,05,37,9.40
2007,06,14,05,38,9.40
2007,06,14,05,39,9.40
2007,06,14,05,40,9.40
2007,06,14,05,41,9.40
2007,06,14,05,42,9.40
2007,06,14,05,43,9.40
2007,06,14,05,44,9.40
2007,06,14,05,45,9.40
2007,06,14,05,46,9.40
2007,06,14,05,47,9.40
2007,06,14,05,48,9.40
2007,06,14,05,49,9.30
2007,06,14,05,50,9.30
2007,06,14,05,51,9.30
2007,06,14,05,52,9.30
2007,06,14,05,53,9.30
2007,06,14,05,54,9.30
2007,06,14,05,55,9.30
2007,06,14,05,56,9.20
2007,06,14,05,57,9.20
2007,06,14,05,58,9.20
2007,06,14,05,59,9.20
2007,06,14,06,00,9.20
2007,06,14,06,01,9.10
2007,06,14,06,02,9.10
2007,06,14,06,03,9.10
2007,06,14,06,04,9.10
2007,06,14,06,05,9.10
2007,06,14,06,06,9.10
2007,06,14,06,07,9.10
2007,06,14,06,08,9.10
2007,06,14,06,09,9.10
2007,06,14,06,10,9.10
2007,06,14,06,11,9.10
2007,06,14,06,12,9.10
2007,06,14,06,13,9.10
2007,06,14,06,14,9.10
2007,06,14,06,15,9.10
2007,06,14,06,16,9.20
2007,06,14,06,17,9.20
2007,06,14,06,18,9.20
2007,06,14,06,19,9.20
2007,06,14,06,20,9.20
2007,06,14,06,21,9.20
2007,06,14,06,22,9.20
2007,06,14,06,23,9.20
2007,06,14,06,24,9.20
2007,06,14,06,25,9.20
2007,06,14,06,26,9.20
2007,06,14,06,27,9.20
2007,06,14,06,28,9.20
2007,06,14,06,29,9.20
2007,06,14,06,30,9.20
2007,06,14,06,31,9.20
2007,06,14,06,32,9.20
2007,06,14,06,33,9.20
2007,06,14,06,34,9.20
2007,06,14,06,35,9.20
2007,06,14,06,36,9.20
2007,06,14,06,37,9.20
2007,06,14,06,38,9.20
2007,06,14,06,39,9.30
2007,06,14,06,40,9.30
2007,06,14,06,41,9.30
2007,06,14,06,42,9.30
2007,06,14,06,43,9.40
2007,06,14,06,44,9.40
2007,06,14,06,45,9.40
2007,06,14,06,46,9.40
2007,06,14,06,47,9.50
2007,06,14,06,48,9.50
2007,06,14,06,49,9.50
2007,06,14,06,50,9.50
2007,06,14,06,51,9.50
2007,06,14,06,52,9.50
2007,06,14,06,53,9.50
2007,06,14,06,54,9.50
2007,06,14,06,55,9.60
2007,06,14,06,56,9.60
2007,06,14,06,57,9.60
2007,06,14,06,58,9.60
2007,06,14,06,59,9.60
2007,06,14,07,00,9.60
2007,06,14,07,01,9.70
2007,06,14,07,02,9.70
2007,06,14,07,03,9.80
2007,06,14,07,04,9.80
2007,06,14,07,05,9.80
2007,06,14,07,06,9.90
2007,06,14,07,07,9.90
2007,06,14,07,08,10.00
2007,06,14,07,09,10.00
2007,06,14,07,10,10.10
2007,06,14,07,11,10.10
2007,06,14,07,12,10.10
2007,06,14,07,13,10.20
2007,06,14,07,14,10.20
2007,06,14,07,15,10.20
2007,06,14,07,16,10.20
2007,06,14,07,17,10.20
2007,06,14,07,18,10.30
2007,06,14,07,19,10.30
2007,06,14,07,20,10.30
2007,06,14,07,21,10.30
2007,06,14,07,22,10.30
2007,06,14,07,23,10.30
2007,06,14,07,24,10.30
2007,06,14,07,25,10.40
2007,06,14,07,26,10.40
2007,06,14,07,27,10.40
2007,06,14,07,28,10.40
2007,06,14,07,29,10.40
2007,06,14,07,30,10.40
2007,06,14,07,31,10.50
2007,06,14,07,32,10.50
2007,06,14,07,33,10.50
2007,06,14,07,34,10.50
2007,06,14,07,35,10.50
2007,06,14,07,36,10.50
2007,06,14,07,37,10.50
2007,06,14,07,38,10.50
2007,06,14,07,39,10.50
2007,06,14,07,40,10.50
2007,06,14,07,41,10.50
2007,06,14,07,42,10.60
2007,06,14,07,43,10.60
2007,06,14,07,44,10.60
2007,06,14,07,45,10.60
2007,06,14,07,46,10.60
2007,06,14,07,47,10.70
2007,06,14,07,48,10.70
2007,06,14,07,49,10.70
2007,06,14,07,50,10.70
2007,06,14,07,51,10.70
2007,06,14,07,52,10.80
2007,06,14,07,53,10.80
2007,06,14,07,54,10.80
2007,06,14,07,55,10.80
2007,06,14,07,56,10.80
2007,06,14,07,57,10.90
2007,06,14,07,58,10.90
2007,06,14,07,59,10.90
2007,06,14,08,00,10.90
2007,06,14,08,01,11.00
2007,06,14,08,02,11.00
2007,06,14,08,03,11.00
2007,06,14,08,04,11.00
2007,06,14,08,05,10.90
2007,06,14,08,06,10.90
2007,06,14,08,07,10.90
2007,06,14,08,08,10.90
2007,06,14,08,09,10.90
2007,06,14,08,10,11.00
2007,06,14,08,11,11.00
2007,06,14,08,12,11.00
2007,06,14,08,13,11.00
2007,06,14,08,14,11.00
2007,06,14,08,15,11.10
2007,06,14,08,16,11.10
2007,06,14,08,17,11.10
2007,06,14,08,18,11.20
2007,06,14,08,19,11.20
2007,06,14,08,20,11.30
2007,06,14,08,21,11.50
2007,06,14,08,22,11.70
2007,06,14,08,23,11.80
2007,06,14,08,24,12.00
2007,06,14,08,25,12.20
2007,06,14,08,26,12.30
2007,06,14,08,27,12.50
2007,06,14,08,28,12.50
2007,06,14,08,29,12.60
2007,06,14,08,30,12.60
2007,06,14,08,31,12.70
2007,06,14,08,32,12.70
2007,06,14,08,33,12.70
2007,06,14,08,34,12.70
2007,06,14,08,35,12.70
2007,06,14,08,36,12.70
2007,06,14,08,37,12.70
2007,06,14,08,38,12.70
2007,06,14,08,39,12.70
2007,06,14,08,40,12.60
2007,06,14,08,41,12.60
2007,06,14,08,42,12.60
2007,06,14,08,43,12.60
2007,06,14,08,44,12.70
2007,06,14,08,45,12.70
2007,06,14,08,46,12.70
2007,06,14,08,47,12.80
2007,06,14,08,48,12.80
2007,06,14,08,49,12.90
2007,06,14,08,50,12.90
2007,06,14,08,51,12.90
2007,06,14,08,52,12.90
2007,06,14,08,53,12.90
2007,06,14,08,54,12.90
2007,06,14,08,55,12.90
2007,06,14,08,56,12.80
2007,06,14,08,57,12.80
2007,06,14,08,58,12.70
2007,06,14,08,59,12.70
2007,06,14,09,00,12.70
2007,06,14,09,01,12.60
2007,06,14,09,02,12.60
2007,06,14,09,03,12.60
2007,06,14,09,04,12.60
2007,06,14,09,05,12.50
2007,06,14,09,06,12.50
2007,06,14,09,07,12.60
2007,06,14,09,08,12.60
2007,06,14,09,09,12.60
2007,06,14,09,10,12.70
2007,06,14,09,11,12.70
2007,06,14,09,12,12.70
2007,06,14,09,13,12.70
2007,06,14,09,14,12.70
2007,06,14,09,15,12.80
2007,06,14,09,16,12.80
2007,06,14,09,17,12.80
2007,06,14,09,18,12.90
2007,06,14,09,19,12.90
2007,06,14,09,20,13.00
2007,06,14,09,21,13.00
2007,06,14,09,22,13.00
2007,06,14,09,23,13.00
2007,06,14,09,24,13.10
2007,06,14,09,25,13.10
2007,06,14,09,26,13.20
2007,06,14,09,27,13.20
2007,06,14,09,28,13.30
2007,06,14,09,29,13.40
2007,06,14,09,30,13.40
2007,06,14,09,31,13.60
2007,06,14,09,32,13.70
2007,06,14,09,33,13.80
2007,06,14,09,34,13.80
2007,06,14,09,35,13.80
2007,06,14,09,36,13.80
2007,06,14,09,37,13.90
2007,06,14,09,38,13.90
2007,06,14,09,39,14.00
2007,06,14,09,40,14.00
2007,06,14,09,41,14.10
2007,06,14,09,42,14.00
2007,06,14,09,43,13.90
2007,06,14,09,44,13.80
2007,06,14,09,45,13.80
2007,06,14,09,46,13.70
2007,06,14,09,47,13.60
2007,06,14,09,48,13.60
2007,06,14,09,49,13.50
2007,06,14,09,50,13.50
2007,06,14,09,51,13.50
2007,06,14,09,52,13.60
2007,06,14,09,53,13.60
2007,06,14,09,54,13.70
2007,06,14,09,55,13.70
2007,06,14,09,56,13.70
2007,06,14,09,57,13.80
2007,06,14,09,58,13.80
2007,06,14,09,59,13.90
2007,06,14,10,00,13.80
2007,06,14,10,01,13.80
2007,06,14,10,02,13.80
2007,06,14,10,03,13.80
2007,06,14,10,04,13.80
2007,06,14,10,05,13.80
2007,06,14,10,06,13.90
2007,06,14,10,07,13.90
2007,06,14,10,08,14.00
2007,06,14,10,09,14.00
2007,06,14,10,10,14.10
2007,06,14,10,11,14.20
2007,06,14,10,12,14.20
2007,06,14,10,13,14.20
2007,06,14,10,14,14.30
2007,06,14,10,15,14.30
2007,06,14,10,16,14.30
2007,06,14,10,17,14.40
2007,06,14,10,18,14.40
2007,06,14,10,19,14.50
2007,06,14,10,20,14.60
2007,06,14,10,21,14.60
2007,06,14,10,22,14.60
2007,06,14,10,23,14.60
2007,06,14,10,24,14.60
2007,06,14,10,25,14.60
2007,06,14,10,26,14.60
2007,06,14,10,27,14.50
2007,06,14,10,28,14.40
2007,06,14,10,29,14.50
2007,06,14,10,30,14.40
2007,06,14,10,31,14.40
2007,06,14,10,32,14.40
2007,06,14,10,33,14.40
2007,06,14,10,34,14.40
2007,06,14,10,35,14.50
2007,06,14,10,36,14.60
2007,06,14,10,37,14.60
2007,06,14,10,38,14.50
2007,06,14,10,39,14.40
2007,06,14,10,40,14.40
2007,06,14,10,41,14.30
2007,06,14,10,42,14.30
2007,06,14,10,43,14.20
2007,06,14,10,44,14.20
2007,06,14,10,45,14.30
2007,06,14,10,46,14.30
2007,06,14,10,47,14.20
2007,06,14,10,48,14.10
2007,06,14,10,49,14.10
2007,06,14,10,50,14.20
2007,06,14,10,51,14.20
2007,06,14,10,52,14.30
2007,06,14,10,53,14.30
2007,06,14,10,54,14.30
2007,06,14,10,55,14.30
2007,06,14,10,56,14.30
2007,06,14,10,57,14.20
2007,06,14,10,58,14.30
2007,06,14,10,59,14.30
2007,06,14,11,00,14.40
2007,06,14,11,01,14.50
2007,06,14,11,02,14.50
2007,06,14,11,03,14.50
2007,06,14,11,04,14.40
2007,06,14,11,05,14.40
2007,06,14,11,06,14.40
2007,06,14,11,07,14.60
2007,06,14,11,08,14.70
2007,06,14,11,09,14.80
2007,06,14,11,10,14.80
2007,06,14,11,11,13.90
2007,06,14,12,02,15.00
2007,06,14,12,03,15.00
2007,06,14,12,04,15.00
2007,06,14,12,05,15.20
2007,06,14,12,06,15.30
2007,06,14,12,07,15.30
2007,06,14,12,08,15.40
2007,06,14,12,09,15.40
2007,06,14,12,10,15.40
2007,06,14,12,11,15.40
2007,06,14,12,12,15.40
2007,06,14,12,13,15.50
2007,06,14,12,14,15.60
2007,06,14,12,15,15.50
2007,06,14,12,16,15.40
2007,06,14,12,17,15.30
2007,06,14,12,18,15.30
2007,06,14,12,19,15.40
2007,06,14,12,20,15.50
2007,06,14,12,21,15.70
2007,06,14,12,22,15.80
2007,06,14,12,23,16.00
2007,06,14,12,24,16.20
2007,06,14,12,25,16.20
2007,06,14,12,26,16.20
2007,06,14,12,27,16.10
2007,06,14,12,28,15.90
2007,06,14,12,29,15.70
2007,06,14,12,30,15.50
2007,06,14,12,31,15.10
2007,06,14,12,32,15.00
2007,06,14,12,33,14.90
2007,06,14,12,34,14.80
2007,06,14,12,35,14.90
2007,06,14,12,36,15.00
2007,06,14,12,37,15.00
2007,06,14,12,38,15.00
2007,06,14,12,39,15.00
2007,06,14,12,40,15.00
2007,06,14,12,41,15.00
2007,06,14,12,42,15.00
2007,06,14,12,43,14.90
2007,06,14,12,44,14.80
2007,06,14,12,45,14.70
2007,06,14,12,46,14.70
2007,06,14,12,47,14.80
2007,06,14,12,48,14.90
2007,06,14,12,49,15.00
2007,06,14,12,50,15.00
2007,06,14,12,51,14.90
2007,06,14,12,52,14.90
2007,06,14,12,53,14.90
2007,06,14,12,54,14.90
2007,06,14,12,55,14.90
2007,06,14,12,56,15.00
2007,06,14,12,57,15.00
2007,06,14,12,58,15.00
2007,06,14,12,59,15.00
2007,06,14,13,00,15.00
2007,06,14,13,01,15.00
2007,06,14,13,02,15.00
2007,06,14,13,03,15.10
2007,06,14,13,04,15.20
2007,06,14,13,05,15.00
2007,06,14,13,06,15.00
2007,06,14,13,07,15.00
2007,06,14,13,08,14.90
2007,06,14,13,09,14.80
2007,06,14,13,10,14.80
2007,06,14,13,11,14.80
2007,06,14,13,12,14.80
2007,06,14,13,13,14.80
2007,06,14,13,14,15.00
2007,06,14,13,15,15.00
2007,06,14,13,16,15.10
2007,06,14,13,17,15.20
2007,06,14,13,18,15.40
2007,06,14,13,19,15.60
2007,06,14,13,20,15.60
2007,06,14,13,21,15.70
2007,06,14,13,22,15.80
2007,06,14,13,23,15.90
2007,06,14,13,24,15.90
2007,06,14,13,25,16.00
2007,06,14,13,26,16.00
2007,06,14,13,27,16.00
2007,06,14,13,28,16.10
2007,06,14,13,29,16.10
2007,06,14,13,30,16.00
2007,06,14,13,31,16.00
2007,06,14,13,32,16.10
2007,06,14,13,33,16.10
2007,06,14,13,34,16.10
2007,06,14,13,35,16.00
2007,06,14,13,36,15.90
2007,06,14,13,37,15.90
2007,06,14,13,38,15.90
2007,06,14,13,39,15.90
2007,06,14,13,40,15.90
2007,06,14,13,41,15.80
2007,06,14,13,42,15.80
2007,06,14,13,43,15.80
2007,06,14,13,44,15.80
2007,06,14,13,45,15.90
2007,06,14,13,46,15.90
2007,06,14,13,47,15.90
2007,06,14,13,48,15.90
2007,06,14,13,49,16.00
2007,06,14,13,50,16.10
2007,06,14,13,51,16.20
2007,06,14,13,52,16.40
2007,06,14,13,53,16.40
2007,06,14,13,54,16.40
2007,06,14,13,55,16.40
2007,06,14,13,56,16.30
2007,06,14,13,57,16.20
2007,06,14,13,58,16.10
2007,06,14,13,59,15.90
2007,06,14,14,00,15.90
2007,06,14,14,01,15.90
2007,06,14,14,02,16.00
2007,06,14,14,03,16.10
2007,06,14,14,04,16.10
2007,06,14,14,05,16.10
2007,06,14,14,06,16.10
2007,06,14,14,07,16.10
2007,06,14,14,08,16.10
2007,06,14,14,09,16.00
2007,06,14,14,10,16.00
2007,06,14,14,11,16.00
2007,06,14,14,12,16.00
2007,06,14,14,13,16.00
2007,06,14,14,14,16.10
2007,06,14,14,15,16.10
2007,06,14,14,16,16.10
2007,06,14,14,17,16.20
2007,06,14,14,18,16.20
2007,06,14,14,19,16.20
2007,06,14,14,20,16.30
2007,06,14,14,21,16.40
2007,06,14,14,22,16.30
2007,06,14,14,23,16.30
2007,06,14,14,24,16.30
2007,06,14,14,25,16.30
2007,06,14,14,26,16.40
2007,06,14,14,27,16.60
2007,06,14,14,28,16.80
2007,06,14,14,29,16.90
2007,06,14,14,30,17.00
2007,06,14,14,31,17.10
2007,06,14,14,32,17.20
2007,06,14,14,33,17.20
2007,06,14,14,34,17.20
2007,06,14,14,35,17.10
2007,06,14,14,36,16.90
2007,06,14,14,37,16.80
2007,06,14,14,38,16.60
2007,06,14,14,39,16.40
2007,06,14,14,40,16.30
2007,06,14,14,41,16.30
2007,06,14,14,42,16.40
2007,06,14,14,43,16.40
2007,06,14,14,44,16.50
2007,06,14,14,45,16.60
2007,06,14,14,46,16.60
2007,06,14,14,47,16.60
2007,06,14,14,48,16.60
2007,06,14,14,49,16.70
2007,06,14,14,50,16.80
2007,06,14,14,51,17.00
2007,06,14,14,52,17.00
2007,06,14,14,53,17.10
2007,06,14,14,54,17.10
2007,06,14,14,55,17.20
2007,06,14,14,56,17.20
2007,06,14,14,57,17.20
2007,06,14,14,58,17.30
2007,06,14,14,59,17.30
2007,06,14,15,00,17.40
2007,06,14,15,01,17.30
2007,06,14,15,02,17.30
2007,06,14,15,03,17.40
2007,06,14,15,04,17.30
2007,06,14,15,05,17.40
2007,06,14,15,06,17.40
2007,06,14,15,07,17.40
2007,06,14,15,08,17.50
2007,06,14,15,09,17.50
2007,06,14,15,10,17.50
2007,06,14,15,11,17.50
2007,06,14,15,12,17.40
2007,06,14,15,13,17.30
2007,06,14,15,14,17.20
2007,06,14,15,15,17.10
2007,06,14,15,16,17.10
2007,06,14,15,17,17.00
2007,06,14,15,18,16.80
2007,06,14,15,19,16.60
2007,06,14,15,20,16.40
2007,06,14,15,21,16.30
2007,06,14,15,22,16.30
2007,06,14,15,23,16.30
2007,06,14,15,24,16.40
2007,06,14,15,25,16.30
2007,06,14,15,26,16.30
2007,06,14,15,27,16.30
2007,06,14,15,28,16.30
2007,06,14,15,29,16.30
2007,06,14,15,30,16.40
2007,06,14,15,31,16.50
2007,06,14,15,32,16.60
2007,06,14,15,33,16.80
2007,06,14,15,34,17.00
2007,06,14,15,35,17.20
2007,06,14,15,36,17.30
2007,06,14,15,37,17.30
2007,06,14,15,38,17.20
2007,06,14,15,39,17.30
2007,06,14,15,40,17.30
2007,06,14,15,41,17.50
2007,06,14,15,42,17.50
2007,06,14,15,43,17.50
2007,06,14,15,44,17.40
2007,06,14,15,45,17.30
2007,06,14,15,46,17.30
2007,06,14,15,47,17.20
2007,06,14,15,48,16.90
2007,06,14,15,49,16.80
2007,06,14,15,50,16.60
2007,06,14,15,51,16.60
2007,06,14,15,52,16.60
2007,06,14,15,53,16.50
2007,06,14,15,54,16.50
2007,06,14,15,55,16.50
2007,06,14,15,56,16.50
2007,06,14,15,57,16.40
2007,06,14,15,58,16.50
2007,06,14,15,59,16.60
2007,06,14,16,00,16.70
2007,06,14,16,01,16.80
2007,06,14,16,02,16.90
2007,06,14,16,03,17.00
2007,06,14,16,04,17.10
2007,06,14,16,05,17.20
2007,06,14,16,06,17.30
2007,06,14,16,07,17.40
2007,06,14,16,08,17.40
2007,06,14,16,09,17.50
2007,06,14,16,10,17.50
2007,06,14,16,11,17.50
2007,06,14,16,12,17.50
2007,06,14,16,13,17.60
2007,06,14,16,14,17.50
2007,06,14,16,15,17.40
2007,06,14,16,16,17.40
2007,06,14,16,17,17.30
2007,06,14,16,18,17.20
2007,06,14,16,19,17.20
2007,06,14,16,20,17.20
2007,06,14,16,21,17.10
2007,06,14,16,22,17.00
2007,06,14,16,23,16.90
2007,06,14,16,24,16.80
2007,06,14,16,25,16.70
2007,06,14,16,26,16.70
2007,06,14,16,27,16.80
2007,06,14,16,28,16.90
2007,06,14,16,29,17.00
2007,06,14,16,30,17.00
2007,06,14,16,31,17.10
2007,06,14,16,32,17.20
2007,06,14,16,33,17.20
2007,06,14,16,34,17.10
2007,06,14,16,35,17.20
2007,06,14,16,36,17.30
2007,06,14,16,37,17.30
2007,06,14,16,38,17.20
2007,06,14,16,39,17.10
2007,06,14,16,40,17.00
2007,06,14,16,41,16.90
2007,06,14,16,42,16.80
2007,06,14,16,43,16.70
2007,06,14,16,44,16.50
2007,06,14,16,45,16.40
2007,06,14,16,46,16.20
2007,06,14,16,47,16.10
2007,06,14,16,48,16.10
2007,06,14,16,49,16.00
2007,06,14,16,50,15.90
2007,06,14,16,51,15.90
2007,06,14,16,52,15.90
2007,06,14,16,53,15.90
2007,06,14,16,54,15.90
2007,06,14,16,55,15.90
2007,06,14,16,56,15.90
2007,06,14,16,57,15.90
2007,06,14,16,58,16.00
2007,06,14,16,59,16.00
2007,06,14,17,00,15.90
2007,06,14,17,01,15.90
2007,06,14,17,02,16.00
2007,06,14,17,03,16.00
2007,06,14,17,04,16.00
2007,06,14,17,05,16.00
2007,06,14,17,06,16.10
2007,06,14,17,07,16.20
2007,06,14,17,08,16.30
2007,06,14,17,09,16.40
2007,06,14,17,10,16.50
2007,06,14,17,11,16.70
2007,06,14,17,12,16.80
2007,06,14,17,13,17.00
2007,06,14,17,14,17.10
2007,06,14,17,15,17.30
2007,06,14,17,16,17.40
2007,06,14,17,17,17.60
2007,06,14,17,18,17.70
2007,06,14,17,19,17.80
2007,06,14,17,20,17.80
2007,06,14,17,21,17.80
2007,06,14,17,22,17.80
2007,06,14,17,23,17.80
2007,06,14,17,24,17.80
2007,06,14,17,25,17.70
2007,06,14,17,26,17.70
2007,06,14,17,27,17.70
2007,06,14,17,28,17.60
2007,06,14,17,29,17.60
2007,06,14,17,30,17.50
2007,06,14,17,31,17.40
2007,06,14,17,32,17.30
2007,06,14,17,33,17.20
2007,06,14,17,34,17.10
2007,06,14,17,35,17.00
2007,06,14,17,36,16.90
2007,06,14,17,37,16.80
2007,06,14,17,38,16.80
2007,06,14,17,39,16.70
2007,06,14,17,40,16.70
2007,06,14,17,41,16.70
2007,06,14,17,42,16.70
2007,06,14,17,43,16.80
2007,06,14,17,44,16.90
2007,06,14,17,45,17.00
2007,06,14,17,46,17.00
2007,06,14,17,47,17.00
2007,06,14,17,48,17.00
2007,06,14,17,49,17.00
2007,06,14,17,50,17.00
2007,06,14,17,51,17.10
2007,06,14,17,52,17.00
2007,06,14,17,53,17.00
2007,06,14,17,54,17.00
2007,06,14,17,55,17.10
2007,06,14,17,56,17.00
2007,06,14,17,57,17.00
2007,06,14,17,58,16.90
2007,06,14,17,59,16.90
2007,06,14,18,00,16.90
2007,06,14,18,01,16.80
2007,06,14,18,02,16.70
2007,06,14,18,03,16.60
2007,06,14,18,04,16.60
2007,06,14,18,05,16.60
2007,06,14,18,06,16.60
2007,06,14,18,07,16.60
2007,06,14,18,08,16.70
2007,06,14,18,09,16.80
2007,06,14,18,10,17.00
2007,06,14,18,11,17.10
2007,06,14,18,12,17.30
2007,06,14,18,13,17.40
2007,06,14,18,14,17.40
2007,06,14,18,15,17.40
2007,06,14,18,16,17.40
2007,06,14,18,17,17.40
2007,06,14,18,18,17.40
2007,06,14,18,19,17.30
2007,06,14,18,20,17.30
2007,06,14,18,21,17.30
2007,06,14,18,22,17.20
2007,06,14,18,23,17.10
2007,06,14,18,24,17.10
2007,06,14,18,25,17.10
2007,06,14,18,26,17.10
2007,06,14,18,27,17.10
2007,06,14,18,28,17.10